Location: Dvur Kralove nad Labem
(50.4330°N, 15.8170°E)
Time: 09:33:08
(UTC+02:00)

ISS - Visible Passes

Search period start: 26 September 2018 00:00
Search period end: 06 October 2018 00:00
Orbit: 403 x 408 km, 51.6° (Epoch: 26 September)

Date Brightness Start Highest point End Pass type
(mag) Time Alt. Az. Time Alt. Az. Time Alt. Az.
26 Sep -3.8 20:11:54 10° WSW 20:15:10 62° SSE 20:16:23 34° E visible
26 Sep -0.8 21:48:24 10° W 21:49:04 15° W 21:49:04 15° W visible
27 Sep -3.2 19:20:11 10° SW 19:23:20 42° SSE 19:26:29 10° E visible
27 Sep -3.3 20:56:27 10° W 20:59:15 59° WNW 20:59:15 59° WNW visible
28 Sep -3.9 20:04:30 10° WSW 20:07:48 89° NNW 20:09:23 29° ENE visible
28 Sep -1.0 21:41:07 10° W 21:42:03 17° WNW 21:42:03 17° WNW visible
29 Sep -3.8 19:12:36 10° WSW 19:15:53 70° SSE 19:19:11 10° ENE visible
29 Sep -3.4 20:49:09 10° W 20:52:07 62° NW 20:52:07 62° NW visible
30 Sep -3.7 19:57:10 10° W 20:00:28 72° N 20:02:08 27° ENE visible
30 Sep -1.0 21:33:46 10° WNW 21:34:48 19° WNW 21:34:48 19° WNW visible
01 Oct -3.8 19:05:10 10° W 19:08:29 83° NNW 19:11:48 10° ENE visible
01 Oct -3.5 20:41:48 10° WNW 20:44:47 67° NW 20:44:47 67° NW visible
02 Oct -3.7 19:49:48 10° W 19:53:06 69° N 19:54:46 26° E visible
02 Oct -1.1 21:26:21 10° WNW 21:27:26 19° W 21:27:26 19° W visible
03 Oct -3.6 18:57:46 10° W 19:01:04 70° N 19:04:22 10° E visible
03 Oct -3.7 20:34:22 10° WNW 20:37:24 73° W 20:37:24 73° W visible
04 Oct -3.8 19:42:21 10° WNW 19:45:40 80° N 19:47:23 26° E visible
04 Oct -1.1 21:18:58 10° W 21:20:03 18° W 21:20:03 18° W visible
05 Oct -3.4 20:26:53 10° WNW 20:30:03 54° SSW 20:30:03 54° SSW visible
